Quincy, IL

6:58 AM CST on November 15, 2019 (GMT -0600)
Quincy Regional-Baldwin

Weather History for KUIN - September, 2019

Change the Weather History Date:

Thursday, September 5, 2019

  Actual Average Record
Temperature  
Mean Temperature 67 °F 71 °F  
Max Temperature 79 °F 81 °F 100 °F (1925)
Min Temperature 55 °F 60 °F 45 °F (1950)
Degree Days  
Heating Degree Days 0 1  
Month to date heating degree days 0 4  
Since 1 July heating degree days 2 9  
Cooling Degree Days 2 6  
Month to date cooling degree days 33 34  
Year to date cooling degree days 1090 987  
Growing Degree Days 17 (Base 50)    
Moisture  
Dew Point 60 °F    
Average Humidity 75    
Maximum Humidity 93    
Minimum Humidity 52    
Precipitation  
Precipitation 0.00 in 0.11 in 1.20 in (1921)
Month to date precipitation 0.00 0.55  
Year to date precipitation 31.03 26.30  
Sea Level Pressure  
Sea Level Pressure 30.08 in    
Wind  
Wind Speed 5 mph ()    
Max Wind Speed 12 mph    
Max Gust Speed 15 mph    
Visibility 10.0 miles    
Events      
T = Trace of Precipitation, MM = Missing Value Source: Averaged Metar Reports

Daily Weather History Graph

Daily Weather History Graph

Search for Another Location

Airport or City:

Astronomy

Sep. 05, 2019 Rise Set
Actual Time 6:36 AM CDT 7:30 PM CDT
Civil Twilight 6:08 AM CDT 7:57 PM CDT
Nautical Twilight 5:35 AM CDT 8:30 PM CDT
Astronomical Twilight 5:01 AM CDT 9:04 PM CDT
Moon 1:42 PM CDT (9/5) 11:46 PM CDT (9/5)
Length of Visible Light 13h 48m
Length of Day
12h 53m
Waxing Crescent, 45% of the Moon is Illuminated
Sep 5
Waxing Crescent
Sep 5
First Quarter
Sep 13
Full
Sep 21
Last Quarter
Sep 28
New

Hourly Weather History & Observations

Time (CDT) Temp. Dew Point Humidity Pressure Visibility Wind Dir Wind Speed Gust Speed Precip Events Conditions
12:54 AM 59.0 °F 55.9 °F 90% 30.13 in 10.0 mi NE 4.6 mph - N/A   Clear
2:54 AM 57.0 °F 55.0 °F 93% 30.13 in 10.0 mi NE 4.6 mph - N/A   Clear
3:54 AM 55.9 °F 54.0 °F 93% 30.13 in 10.0 mi NE 5.8 mph - N/A   Clear
4:54 AM 57.0 °F 55.0 °F 93% 30.13 in 10.0 mi East 4.6 mph - N/A   Clear
5:54 AM 57.0 °F 55.0 °F 93% 30.14 in 10.0 mi East 4.6 mph - N/A   Clear
6:54 AM 57.0 °F 55.0 °F 93% 30.16 in 10.0 mi East 5.8 mph - N/A   Clear
7:54 AM 60.1 °F 57.0 °F 90% 30.16 in 10.0 mi ESE 4.6 mph - N/A   Clear
8:54 AM 64.0 °F 59.0 °F 84% 30.17 in 10.0 mi SE 6.9 mph - N/A   Clear
9:54 AM 68.0 °F 60.1 °F 76% 30.16 in 10.0 mi SSE 6.9 mph - N/A   Partly Cloudy
10:54 AM 72.0 °F 59.0 °F 64% 30.14 in 10.0 mi SSE 6.9 mph - N/A   Clear
11:54 AM 73.0 °F 59.0 °F 61% 30.14 in 10.0 mi Variable 5.8 mph - N/A   Partly Cloudy
12:54 PM 75.0 °F 60.1 °F 60% 30.12 in 10.0 mi ESE 5.8 mph - N/A   Clear
1:54 PM 77.0 °F 61.0 °F 58% 30.10 in 10.0 mi South 6.9 mph - N/A   Clear
2:54 PM 78.1 °F 62.1 °F 58% 30.08 in 10.0 mi South 11.5 mph - N/A   Clear
3:54 PM 79.0 °F 60.1 °F 52% 30.06 in 10.0 mi SSE 9.2 mph - N/A   Clear
4:54 PM 79.0 °F 62.1 °F 56% 30.04 in 10.0 mi South 8.1 mph - N/A   Clear
5:54 PM 79.0 °F 64.0 °F 60% 30.03 in 10.0 mi South 6.9 mph - N/A   Clear
6:54 PM 77.0 °F 64.9 °F 66% 30.02 in 10.0 mi SSE 6.9 mph - N/A   Scattered Clouds
7:54 PM 73.0 °F 64.9 °F 76% 29.99 in 10.0 mi SSE 6.9 mph - N/A   Clear
8:54 PM 72.0 °F 64.0 °F 76% 29.99 in 10.0 mi South 8.1 mph - N/A   Clear
9:54 PM 72.0 °F 63.0 °F 73% 29.97 in 10.0 mi South 9.2 mph - N/A   Clear
10:54 PM 71.1 °F 63.0 °F 75% 29.96 in 10.0 mi South 8.1 mph - N/A   Clear
11:54 PM 71.1 °F 63.0 °F 75% 29.96 in 10.0 mi South 6.9 mph - N/A   Clear